User: anonymous
Location: Clinton NY
(43.0598°N, 75.3602°W)
Time: 02:59:36
(UTC-04:00)
Language:

Iridium 42 - Orbit

View from above orbital plane
View from above orbital plane
View from above satellite
View from above satellite

Ground track
Ground track

The orbit data is extracted from the following two-line orbital elements,

1 25077U 97077A   14245.16005751  .00000160  00000-0  50199-4 0  9357
2 25077 086.3924 087.9534 0002067 103.2856 256.8570 14.34222950876119
Epoch (UTC): 02 September 2014 03:50:28
Eccentricity: 0.0002067
inclination: 86.3924°
perigee height: 776 km
apogee height: 779 km
right ascension of ascending node: 87.9534°
argument of perigee: 103.2856°
revolutions per day: 14.34222950
mean anomaly at epoch: 256.8570°
orbit number at epoch: 87611

The dashed part of the orbit path shows where the satellite is in the earth's shadow,  

DLR